Tracking 18032 objects as of 27-March-2017
HD Live streaming from Space Station
objects crossing your sky now

COSMOS 2087

Track COSMOS 2087 now!
COSMOS 2087 is classified as:


NORAD ID: 20707
Int'l Code: 1990-064A
Perigee: 4,067.4 km
Apogee: 36,260.0 km
Inclination: 68.5 °
Period: 716.9 minutes
Semi major axis: 26534 km
RCS: 8.1788 m2 (large)
Launch date: July 25, 1990
Source: Commonwealth of Independent States (former USSR) (CIS)
Launch site: PLESETSK MISSILE AND SPACE COMPLEX (PKMTR)
Your satellite tracking list
Your tracking list is empty





NASA's NSSDC Master Catalog

Two Line Element Set (TLE):
1 20707U 90064A   17084.65945920 +.00000732 +00000-0 +00000-0 0  9997
2 20707 068.4706 028.2629 6066146 120.4018 153.1761 02.00854505195258
Source of the keplerian elements: AFSPC